Home   Weather   Zwickau   Past weeks

Flag for Germany Past Weather in Zwickau, Saxony, Germany — Yesterday and Last 2 Weeks

39 °F

Partly cloudy.

Feels Like: 39 °F
Forecast: 38 / 52 °F
Wind: No wind

Location: Karlovy Vary Airport

Current Time: Oct 22, 2016 at 9:44:52 PM

Latest Report: Oct 22, 2016 at 9:00 PM

Visibility: 4 mi

Pressure: 29.95 "Hg

Humidity: 93%

Dew Point: 37 °F

Location of ZwickauLocation

Past Weather in Zwickau — Graph


Zwickau Temperature Yesterday

Maximum temperature yesterday: 43 °F (at 1:30 PM)
Minimum temperature yesterday: 37 °F (at 5:00 AM)
Average temperature yesterday: 39 °F

High & Low Weather Summary for the Past Weeks

High63 °F (Oct 16, 3:30 PM)100% (Oct 7, 11:00 PM)30.27 "Hg (Oct 7, 11:00 PM)
Low30 °F (Oct 10, 5:00 AM)52% (Oct 16, 4:00 PM)29.83 "Hg (Oct 15, 12:00 AM)
Average43 °F89%30.05 "Hg
* Reported Oct 7 8:00 PM — Oct 22 8:30 PM, Zwickau, Weather by CustomWeather, © 2016

Note: Actual official high and low records may vary slightly from our data, if they occured in-between our weather recording intervals... More about our weather records


Zwickau Weather History for the Previous 24 Hours

Scroll right to see more
Time TempWeatherWind HumidityBarometerVisibility
8:30 PM
Sat, Oct 22
39 °FPassing clouds.1 mph93%29.95 "Hg5 mi
8:00 PM39 °FLight rain. Partly cloudy.2 mph93%29.92 "HgN/A
7:30 PM39 °FPartly cloudy.2 mph93%29.92 "HgN/A
7:00 PM39 °FPassing clouds.2 mph93%29.92 "HgN/A
6:30 PM39 °FPartly cloudy.2 mph93%29.92 "HgN/A
6:00 PM39 °FBroken clouds.2 mph93%29.92 "HgN/A
5:30 PM41 °FLight rain. Broken clouds.2 mph87%29.92 "HgN/A
5:00 PM41 °FPartly sunny.2 mph87%29.92 "HgN/A
4:30 PM41 °FPartly sunny.5 mph87%29.92 "HgN/A
4:00 PM41 °FBroken clouds.3 mph87%29.89 "HgN/A
3:30 PM41 °FPartly sunny.5 mph87%29.89 "HgN/A
3:00 PM41 °FBroken clouds.5 mph87%29.92 "HgN/A
2:30 PM41 °FCloudy.5 mph87%29.92 "HgN/A
2:00 PM41 °FMostly cloudy.6 mph87%29.89 "HgN/A
1:30 PM39 °FCloudy.3 mph93%29.89 "HgN/A
1:00 PM39 °FCloudy.5 mph93%29.89 "HgN/A
12:30 PM39 °FLight rain. Mostly cloudy.3 mph93%29.92 "Hg5 mi
12:00 PM39 °FLight rain. Cloudy.3 mph93%29.92 "Hg5 mi
11:30 AM39 °FLight rain. Mostly cloudy.2 mph93%29.89 "Hg5 mi
11:00 AM39 °FLight rain. Fog.1 mph93%29.89 "Hg3 mi
10:30 AM39 °FLight rain. Fog.2 mph93%29.89 "Hg3 mi
10:00 AM39 °FLight rain. Fog.2 mph93%29.92 "Hg3 mi
9:30 AM37 °FPartly sunny.3 mph93%29.92 "Hg4 mi
9:00 AM37 °FBroken clouds.3 mph93%29.92 "Hg4 mi
8:30 AM36 °FPartly sunny.2 mph100%29.92 "Hg4 mi
8:00 AM36 °FLight rain. Fog.3 mph93%29.92 "Hg3 mi
7:30 AM36 °FLight rain. Passing clouds.3 mph93%29.92 "HgN/A
7:00 AM36 °FPassing clouds.2 mph93%29.92 "HgN/A
6:00 AM36 °FPassing clouds.3 mph93%29.92 "HgN/A
5:00 AM36 °FPassing clouds.2 mph93%29.92 "HgN/A
4:00 AM36 °FPassing clouds.1 mph93%29.92 "HgN/A
3:00 AM36 °FPassing clouds.2 mph93%29.92 "HgN/A
2:00 AM34 °FPassing clouds.1 mph93%29.92 "HgN/A
1:00 AM36 °FPassing clouds.1 mph100%29.95 "HgN/A
12:00 AM37 °FOvercast.2 mph93%29.95 "HgN/A
11:00 PM
Fri, Oct 21
37 °FPassing clouds.1 mph93%29.95 "HgN/A
10:00 PM37 °FOvercast.2 mph93%29.95 "Hg4 mi
9:00 PM37 °FPartly cloudy.No wind100%29.92 "HgN/A
Weather by CustomWeather, © 2016

See weather overviewHow to use our weather pages